Regional Weather Roundup
Issued by NWS Goodland, KS

Home | Current Version | Previous Version | Graphics & Text | Print | Product List | Glossary On
Versions: 1 2 3 4 5 6 7 8 9 10 11 12 13 14 15 16 17 18 19 20 21 22 23 24 25 26 27 28 29 30 31 32 33 34 35 36 37 38 39 40 41 42 43 44 45 46 47 48 49 50
000
ASUS43 KGLD 271008
RWRGLD

GOODLAND FORECAST AREA HOURLY WEATHER ROUNDUP
NATIONAL WEATHER SERVICE GOODLAND KS
400 AM MDT THU APR 27 2017

...OFFICIAL OBSERVATIONS...

CITY           SKY/WX    TMP DP  RH WIND       PRES   REMARKS
GOODLAND KS    CLOUDY    34  29  82 S8        29.63F
HILL CITY KS   CLEAR     29  27  92 CALM      29.70F
IMPERIAL NEB   CLEAR     34  29  82 SE8       29.64F
MCCOOK NEB     PTCLDY    31  28  89 NE3       29.67F
AKRON CO       PTCLDY    39  35  86 S9        29.61F
BURLINGTON CO  NOT AVBL
LIMON CO       CLOUDY    31  31 100 CALM      29.62F
$$

...UNOFFICIAL OBSERVATIONS...

CITY           SKY/WX    TMP DP  RH WIND       PRES   REMARKS
LENORA KS        N/A     33  32  96 MISG        N/A
NORTON KS      CLOUDY    30  25  80 CALM      29.68F
SHARON SPRINGS   N/A     37  30  77 S12         N/A
TRENTON NEB      N/A     31  32 100 SE5         N/A
KIT CARSON CO    N/A     36  30  80 CALM        N/A
$$




USA.gov is the U.S. government's official web portal to all federal, state and local government web resources and services.